CW0352 Weather Reports


Display with metric or nautical units.
time (UTC)temp
F
wind
direction
speed
MPH
gust
MPH
rain 1hr
in
rain 24hr
in
rain mn
in
humidity
%
barometer
mb
20260903221035 100 213 4.0 10.0 0.00 0.00 0.00 21 1013.4
20260903220502 100 257 4.0 10.0 0.00 0.00 0.00 21 1013.5
20260903220000 100 344 3.0 10.0 0.00 0.00 0.00 24 1013.5
20260903215456 100 200 3.0 11.0 0.00 0.00 0.00 23 1013.6
20260903215237 100 271 3.0 11.0 0.00 0.00 0.00 24 1013.6
20260903214627 100 262 3.0 9.0 0.00 0.00 0.00 26 1013.6
20260903214509 100 262 3.0 9.0 0.00 0.00 0.00 26 1013.6
20260903213904 100 285 4.0 11.0 0.00 0.00 0.00 24 1013.6
20260903213343 100 278 4.0 11.0 0.00 0.00 0.00 22 1013.6
20260903212842 100 319 3.0 9.0 0.00 0.00 0.00 26 1013.5
20260903212341 100 298 3.0 9.0 0.00 0.00 0.00 25 1013.6
20260903211844 100 310 3.0 8.0 0.00 0.00 0.00 26 1013.5
20260903211342 99 289 3.0 10.0 0.00 0.00 0.00 26 1013.7
20260903210838 99 290 5.0 12.0 0.00 0.00 0.00 27 1013.6
20260903210309 99 267 4.0 12.0 0.00 0.00 0.00 27 1013.7
20260903205744 99 355 2.0 8.0 0.00 0.00 0.00 30 1013.7
20260903205215 98 12 4.0 8.0 0.00 0.00 0.00 29 1013.7
20260903204931 98 319 4.0 8.0 0.00 0.00 0.00 28 1013.7
20260903204817 98 319 4.0 8.0 0.00 0.00 0.00 28 1013.7
20260903204145 98 270 4.0 9.0 0.00 0.00 0.00 29 1013.7
20260903203616 98 286 4.0 10.0 0.00 0.00 0.00 28 1013.7
20260903203337 98 286 3.0 9.0 0.00 0.00 0.00 30 1013.8
20260903203217 98 286 3.0 9.0 0.00 0.00 0.00 30 1013.8
20260903202555 97 254 5.0 10.0 0.00 0.00 0.00 30 1013.8
20260903202027 97 273 5.0 10.0 0.00 0.00 0.00 30 1013.8
20260903201523 97 317 5.0 10.0 0.00 0.00 0.00 31 1013.9
20260903201019 96 280 5.0 10.0 0.00 0.00 0.00 31 1013.9
20260903200458 96 311 6.0 10.0 0.00 0.00 0.00 31 1013.8
20260903195949 96 304 5.0 12.0 0.00 0.00 0.00 31 1013.8
20260903195450 96 249 5.0 12.0 0.00 0.00 0.00 32 1013.9
20260903194938 96 279 6.0 15.0 0.00 0.00 0.00 31 1013.9
20260903194625 96 273 5.0 15.0 0.00 0.00 0.00 30 1013.9
20260903194509 96 273 5.0 15.0 0.00 0.00 0.00 30 1013.9
20260903193900 96 282 6.0 13.0 0.00 0.00 0.00 32 1013.9
20260903193620 95 268 6.0 13.0 0.00 0.00 0.00 32 1014.1
20260903193506 95 268 6.0 13.0 0.00 0.00 0.00 32 1014.1
20260903192857 95 294 6.0 13.0 0.00 0.00 0.00 32 1013.9
20260903192614 95 311 6.0 12.0 0.00 0.00 0.00 33 1013.9
20260903192449 95 311 6.0 12.0 0.00 0.00 0.00 33 1013.9
20260903191841 95 291 6.0 11.0 0.00 0.00 0.00 33 1013.9
20260903191314 95 261 5.0 11.0 0.00 0.00 0.00 33 1014.1
20260903190817 95 256 5.0 11.0 0.00 0.00 0.00 33 1014.1
20260903190544 95 275 4.0 9.0 0.00 0.00 0.00 34 1014.2
20260903185743 94 300 4.0 9.0 0.00 0.00 0.00 35 1014.2
20260903185245 94 271 4.0 8.0 0.00 0.00 0.00 35 1014.3
20260903184746 93 252 4.0 10.0 0.00 0.00 0.00 36 1014.3
20260903184244 93 270 5.0 12.0 0.00 0.00 0.00 36 1014.4
20260903183738 92 283 6.0 12.0 0.00 0.00 0.00 36 1014.4
20260903183215 92 272 6.0 12.0 0.00 0.00 0.00 37 1014.4
20260903182649 92 276 7.0 15.0 0.00 0.00 0.00 37 1014.5
20260903182145 91 280 7.0 15.0 0.00 0.00 0.00 37 1014.5
20260903181635 91 246 6.0 13.0 0.00 0.00 0.00 38 1014.6
20260903181624 91 273 7.0 14.0 0.00 0.00 0.00 39 1014.5
20260903181228 91 246 6.0 13.0 0.00 0.00 0.00 38 1014.6
20260903180616 91 316 7.0 14.0 0.00 0.00 0.00 39 1014.7
20260903180122 90 323 7.0 14.0 0.00 0.00 0.00 39 1014.7
20260903175542 90 250 6.0 15.0 0.00 0.00 0.00 39 1014.8
20260903175017 89 279 7.0 15.0 0.00 0.00 0.00 41 1014.8
20260903174515 89 265 8.0 15.0 0.00 0.00 0.00 40 1014.8
20260903174020 89 267 6.0 13.0 0.00 0.00 0.00 40 1014.9
20260903173530 88 275 5.0 12.0 0.00 0.00 0.00 42 1014.8
20260903173510 89 260 5.0 13.0 0.00 0.00 0.00 41 1014.8
20260903173116 88 275 5.0 12.0 0.00 0.00 0.00 42 1014.8
20260903172456 88 257 6.0 12.0 0.00 0.00 0.00 42 1014.9
20260903171917 87 271 7.0 14.0 0.00 0.00 0.00 43 1014.9
20260903171351 87 273 6.0 14.0 0.00 0.00 0.00 42 1014.9
20260903170341 86 290 7.0 13.0 0.00 0.00 0.00 43 1014.9
20260903165941 86 264 6.0 13.0 0.00 0.00 0.00 43 1014.9
20260903165543 86 257 5.0 11.0 0.00 0.00 0.00 45 1014.8
20260903165418 86 257 5.0 11.0 0.00 0.00 0.00 45 1014.8
20260903164755 85 264 5.0 10.0 0.00 0.00 0.00 45 1014.8
20260903164516 85 275 5.0 10.0 0.00 0.00 0.00 46 1014.7
20260903164355 85 275 5.0 10.0 0.00 0.00 0.00 46 1014.7
20260903163954 84 306 5.0 10.0 0.00 0.00 0.00 47 1014.6
20260903163829 84 306 5.0 10.0 0.00 0.00 0.00 47 1014.6
20260903163223 83 284 5.0 12.0 0.00 0.00 0.00 49 1014.6
20260903162719 83 0 6.0 15.0 0.00 0.00 0.00 48 1014.6
20260903162152 82 0 6.0 15.0 0.00 0.00 0.00 49 1014.7
20260903161630 82 0 5.0 13.0 0.00 0.00 0.00 49 1014.7
20260903161106 81 0 6.0 12.0 0.00 0.00 0.00 50 1014.6
20260903160602 80 0 6.0 12.0 0.00 0.00 0.00 51 1014.6
20260903160552 80 0 6.0 12.0 0.00 0.00 0.00 50 1014.7
20260903160200 80 0 6.0 12.0 0.00 0.00 0.00 51 1014.6
20260903155546 79 0 6.0 12.0 0.00 0.00 0.00 52 1014.6
20260903155034 78 0 6.0 13.0 0.00 0.00 0.00 53 1014.6
20260903154533 78 0 6.0 13.0 0.00 0.00 0.00 53 1014.6
20260903154032 77 0 6.0 11.0 0.00 0.00 0.00 53 1014.5
20260903153507 77 0 7.0 13.0 0.00 0.00 0.00 54 1014.5
20260903152947 77 0 7.0 13.0 0.00 0.00 0.00 54 1014.5
20260903152446 77 0 5.0 10.0 0.00 0.00 0.00 54 1014.4
20260903151946 76 0 6.0 13.0 0.00 0.00 0.00 54 1014.3
20260903151448 76 0 7.0 13.0 0.00 0.00 0.00 54 1014.3
20260903150932 76 0 7.0 14.0 0.00 0.00 0.00 55 1014.2
20260903150442 75 0 6.0 14.0 0.00 0.00 0.00 55 1014.3
20260903145929 75 0 6.0 13.0 0.00 0.00 0.00 56 1014.2
20260903145629 74 0 7.0 15.0 0.00 0.00 0.00 57 1014.2
20260903145514 74 0 7.0 15.0 0.00 0.00 0.00 57 1014.2
20260903144847 74 0 8.0 15.0 0.00 0.00 0.00 57 1014.2
20260903144343 73 0 7.0 14.0 0.00 0.00 0.00 58 1014.1
20260903143830 73 0 7.0 12.0 0.00 0.00 0.00 58 1013.9
20260903143549 73 0 7.0 12.0 0.00 0.00 0.00 58 1013.9
20260903143431 73 0 7.0 12.0 0.00 0.00 0.00 58 1013.9
20260903143021 73 0 6.0 12.0 0.00 0.00 0.00 59 1013.9
20260903142905 73 0 6.0 12.0 0.00 0.00 0.00 59 1013.9
20260903142254 72 0 7.0 12.0 0.00 0.00 0.00 61 1013.9
20260903141751 72 0 6.0 11.0 0.00 0.00 0.00 61 1013.9
20260903141604 72 0 6.0 11.0 0.00 0.00 0.00 63 1014.1
20260903141517 72 0 6.0 11.0 0.00 0.00 0.00 63 1014.1
20260903140706 72 0 6.0 13.0 0.00 0.00 0.00 64 1013.9
20260903140418 71 0 7.0 13.0 0.00 0.00 0.00 64 1013.9
20260903140250 71 0 7.0 13.0 0.00 0.00 0.00 64 1013.9
20260903135646 71 0 7.0 13.0 0.00 0.00 0.00 64 1013.9
20260903135147 71 0 7.0 15.0 0.00 0.00 0.00 65 1014.1
20260903134624 71 0 5.0 15.0 0.00 0.00 0.00 67 1014.1
20260903134118 70 0 4.0 10.0 0.00 0.00 0.00 68 1013.9
20260903133900 70 0 3.0 10.0 0.00 0.00 0.00 69 1013.8
20260903133723 70 0 3.0 10.0 0.00 0.00 0.00 69 1013.8
20260903133102 70 0 3.0 10.0 0.00 0.00 0.00 69 1013.9
20260903132604 69 0 3.0 8.0 0.00 0.00 0.00 70 1013.9
20260903132100 69 0 3.0 8.0 0.00 0.00 0.00 69 1013.8
20260903131751 70 0 2.0 5.0 0.00 0.00 0.00 69 1013.9
20260903131638 70 0 2.0 5.0 0.00 0.00 0.00 69 1013.9
20260903131006 70 0 2.0 9.0 0.00 0.00 0.00 69 1013.9
20260903130446 70 0 3.0 9.0 0.00 0.00 0.00 69 1013.9
20260903125938 70 0 3.0 12.0 0.00 0.00 0.00 68 1013.6
20260903125437 70 0 4.0 12.0 0.00 0.00 0.00 68 1013.6
20260903124927 70 0 4.0 9.0 0.00 0.00 0.00 68 1013.7
20260903124401 70 0 4.0 9.0 0.00 0.00 0.00 67 1013.6
20260903124055 70 0 4.0 10.0 0.00 0.00 0.00 67 1013.4
20260903123936 70 0 4.0 10.0 0.00 0.00 0.00 67 1013.4
20260903123331 71 0 4.0 13.0 0.00 0.00 0.00 66 1013.5
20260903122827 71 0 4.0 13.0 0.00 0.00 0.00 66 1013.5
20260903122519 71 0 4.0 10.0 0.00 0.00 0.00 66 1013.4
20260903122402 71 0 4.0 10.0 0.00 0.00 0.00 66 1013.4
20260903121754 71 0 5.0 10.0 0.00 0.00 0.00 65 1013.6
20260903121251 71 0 5.0 15.0 0.00 0.00 0.00 65 1013.5
20260903120725 71 0 4.0 15.0 0.00 0.00 0.00 64 1013.4
20260903120449 72 0 3.0 11.0 0.00 0.00 0.00 64 1013.4
20260903120324 72 0 3.0 11.0 0.00 0.00 0.00 64 1013.4
20260903115702 72 0 3.0 9.0 0.00 0.00 0.00 64 1013.5
20260903115203 72 0 4.0 12.0 0.00 0.00 0.00 64 1013.5
20260903115133 72 0 4.0 13.0 0.00 0.00 0.00 63 1013.5
20260903114748 72 0 4.0 13.0 0.00 0.00 0.00 63 1013.5
20260903114117 72 0 4.0 13.0 0.00 0.00 0.00 63 1013.5
20260903113612 72 0 4.0 12.0 0.00 0.00 0.00 63 1013.4
20260903113333 72 0 4.0 14.0 0.00 0.00 0.00 63 1013.4
20260903113213 72 0 4.0 14.0 0.00 0.00 0.00 63 1013.4
20260903112542 73 0 4.0 14.0 0.00 0.00 0.00 62 1013.5
20260903112256 73 0 4.0 12.0 0.00 0.00 0.00 62 1013.5
20260903112142 73 0 4.0 12.0 0.00 0.00 0.00 62 1013.5
20260903111533 73 0 4.0 12.0 0.00 0.00 0.00 62 1013.6
20260903111010 73 0 4.0 15.0 0.00 0.00 0.00 62 1013.4
20260903110503 73 0 4.0 15.0 0.00 0.00 0.00 62 1013.5
20260903105935 73 0 4.0 13.0 0.00 0.00 0.00 61 1013.6
20260903105203 73 0 4.0 10.0 0.00 0.00 0.00 61 1013.5
20260903105149 74 0 4.0 10.0 0.00 0.00 0.00 61 1013.5
20260903105039 73 0 4.0 10.0 0.00 0.00 0.00 61 1013.5
20260903104526 74 0 4.0 10.0 0.00 0.00 0.00 61 1013.5
20260903103856 74 0 5.0 13.0 0.00 0.00 0.00 61 1013.6
20260903103352 74 0 4.0 13.0 0.00 0.00 0.00 61 1013.4
20260903102824 74 0 4.0 11.0 0.00 0.00 0.00 60 1013.3
20260903102317 74 0 4.0 11.0 0.00 0.00 0.00 61 1013.3
20260903101815 73 0 3.0 11.0 0.00 0.00 0.00 61 1013.2
20260903101539 73 0 3.0 10.0 0.00 0.00 0.00 61 1013.3
20260903101419 73 0 3.0 10.0 0.00 0.00 0.00 61 1013.3
20260903100743 74 0 4.0 9.0 0.00 0.00 0.00 60 1013.3
20260903100503 74 0 3.0 11.0 0.00 0.00 0.00 61 1013.2
20260903100345 74 0 3.0 11.0 0.00 0.00 0.00 61 1013.2
20260903095734 74 0 3.0 11.0 0.00 0.00 0.00 60 1013.2
20260903095233 74 0 4.0 11.0 0.00 0.00 0.00 60 1013.3
20260903094710 73 0 4.0 11.0 0.00 0.00 0.00 60 1013.2
20260903094200 73 0 4.0 11.0 0.00 0.00 0.00 61 1013.1
20260903093634 73 0 4.0 14.0 0.00 0.00 0.00 61 1013.2
20260903093349 73 0 4.0 14.0 0.00 0.00 0.00 61 1013.1
20260903093234 73 0 4.0 14.0 0.00 0.00 0.00 61 1013.1
20260903092604 73 0 4.0 12.0 0.00 0.00 0.00 61 1013.1
20260903092059 73 0 4.0 12.0 0.00 0.00 0.00 61 1013.1
20260903091542 73 0 4.0 12.0 0.00 0.00 0.00 62 1013.2
20260903091016 73 0 3.0 9.0 0.00 0.00 0.00 62 1013.2
20260903090526 73 0 3.0 10.0 0.00 0.00 0.00 62 1013.2
20260903090004 73 0 3.0 10.0 0.00 0.00 0.00 62 1013.2
20260903085503 73 0 3.0 10.0 0.00 0.00 0.00 62 1013.2
20260903084955 73 0 3.0 12.0 0.00 0.00 0.00 62 1013.3
20260903084436 73 0 4.0 12.0 0.00 0.00 0.00 62 1013.4
20260903083911 73 0 4.0 11.0 0.00 0.00 0.00 62 1013.4
20260903083635 73 0 4.0 11.0 0.00 0.00 0.00 62 1013.4
20260903083510 73 0 4.0 11.0 0.00 0.00 0.00 62 1013.4
20260903083056 73 0 3.0 10.0 0.00 0.00 0.00 62 1013.5
20260903082944 73 0 3.0 10.0 0.00 0.00 0.00 62 1013.5
20260903082314 73 0 3.0 9.0 0.00 0.00 0.00 62 1013.5
20260903081812 73 0 3.0 10.0 0.00 0.00 0.00 63 1013.6
20260903081528 73 0 3.0 10.0 0.00 0.00 0.00 62 1013.5
20260903081413 73 0 3.0 10.0 0.00 0.00 0.00 62 1013.5
20260903080740 73 0 3.0 9.0 0.00 0.00 0.00 62 1013.6
20260903080234 73 0 3.0 9.0 0.00 0.00 0.00 62 1013.6
20260903075729 73 0 2.0 10.0 0.00 0.00 0.00 62 1013.6
20260903075218 73 0 2.0 10.0 0.00 0.00 0.00 62 1013.6
20260903074720 73 0 3.0 9.0 0.00 0.00 0.00 62 1013.7
20260903074154 73 0 3.0 9.0 0.00 0.00 0.00 62 1013.8
20260903073653 73 0 2.0 9.0 0.00 0.00 0.00 62 1013.9
20260903073150 73 0 2.0 8.0 0.00 0.00 0.00 62 1013.8
20260903072858 73 0 2.0 8.0 0.00 0.00 0.00 61 1013.9
20260903072732 73 0 2.0 8.0 0.00 0.00 0.00 61 1013.9
20260903072128 73 0 2.0 6.0 0.00 0.00 0.00 60 1013.9
20260903071627 73 0 1.0 6.0 0.00 0.00 0.00 60 1014.1
20260903071109 74 0 2.0 5.0 0.00 0.00 0.00 59 1013.9
20260903070546 74 0 2.0 6.0 0.00 0.00 0.00 58 1014.1
20260903070333 74 0 2.0 6.0 0.00 0.00 0.00 57 1014.1
20260903070204 74 0 2.0 6.0 0.00 0.00 0.00 57 1014.1
20260903065534 74 0 1.0 9.0 0.00 0.00 0.00 57 1013.9
20260903065036 74 0 2.0 9.0 0.00 0.00 0.00 56 1013.9
20260903064522 74 0 2.0 9.0 0.00 0.00 0.00 56 1013.9
20260903064018 74 0 3.0 9.0 0.00 0.00 0.00 56 1013.8
20260903063448 74 0 3.0 10.0 0.00 0.00 0.00 55 1013.9
20260903062948 74 0 3.0 10.0 0.00 0.00 0.00 55 1013.8
20260903062703 74 0 3.0 8.0 0.00 0.00 0.00 54 1013.9
20260903062548 74 0 3.0 8.0 0.00 0.00 0.00 54 1013.9
20260903061943 74 0 3.0 8.0 0.00 0.00 0.00 54 1013.9
20260903061416 74 0 3.0 8.0 0.00 0.00 0.00 53 1013.9
20260903060902 75 0 2.0 8.0 0.00 0.00 0.00 52 1013.9
20260903060340 75 0 2.0 10.0 0.00 0.00 0.00 52 1014.1
20260903055826 75 0 3.0 10.0 0.00 0.00 0.00 51 1013.9
20260903055320 75 0 2.0 9.0 0.00 0.00 0.00 51 1013.9
20260903054807 75 0 2.0 10.0 0.00 0.00 0.00 51 1014.1
20260903054309 75 0 3.0 10.0 0.00 0.00 0.00 50 1013.9
20260903053806 75 0 2.0 8.0 0.00 0.00 0.00 50 1014.1
20260903053529 75 0 2.0 8.0 0.00 0.00 0.00 50 1013.9
20260903053412 75 0 2.0 8.0 0.00 0.00 0.00 50 1013.9
20260903052744 75 0 2.0 8.0 0.00 0.00 0.00 50 1014.1
20260903052221 75 0 2.0 6.0 0.00 0.00 0.00 49 1014.1
20260903051720 75 0 2.0 6.0 0.00 0.00 0.00 49 1014.1
20260903051205 74 0 2.0 8.0 0.00 0.00 0.00 48 1014.1
20260903051136 74 0 2.0 8.0 0.00 0.00 0.00 48 1014.1
20260903050758 74 0 2.0 8.0 0.00 0.00 0.00 48 1014.1
20260903050419 74 0 2.0 4.0 0.00 0.00 0.00 48 1014.1
20260903050259 74 0 2.0 4.0 0.00 0.00 0.00 48 1014.1
20260903045655 74 0 2.0 4.0 0.00 0.00 0.00 47 1014.1
20260903045152 75 0 2.0 6.0 0.00 0.00 0.00 46 1013.9
20260903044654 75 0 1.0 6.0 0.00 0.00 0.00 46 1014.1
20260903044150 75 0 1.0 6.0 0.00 0.00 0.00 46 1014.2
20260903043622 75 0 1.0 6.0 0.00 0.00 0.00 47 1014.1
20260903043123 75 0 1.0 6.0 0.00 0.00 0.00 47 1014.2
20260903042558 75 0 1.0 3.0 0.00 0.00 0.00 47 1013.9
20260903042056 75 0 0.0 3.0 0.00 0.00 0.00 47 1013.9
20260903041552 76 0 0.0 2.0 0.00 0.00 0.00 47 1014.1
20260903041026 76 0 0.0 3.0 0.00 0.00 0.00 46 1013.8
20260903040523 76 0 1.0 3.0 0.00 0.00 0.00 46 1014.1
20260903035956 76 0 1.0 3.0 0.00 0.00 0.00 45 1013.9
20260903035810 76 0 1.0 3.0 0.00 0.00 0.00 45 1013.9
20260903035720 76 0 1.0 3.0 0.00 0.00 0.00 45 1013.9
20260903034904 76 0 0.0 3.0 0.00 0.00 0.00 45 1013.9
20260903034408 77 0 1.0 3.0 0.00 0.00 0.00 44 1013.9
20260903033828 77 0 1.0 4.0 0.00 0.00 0.00 43 1013.9
20260903033325 77 0 0.0 4.0 0.00 0.00 0.00 43 1013.9
20260903032758 78 0 0.0 2.0 0.00 0.00 0.00 42 1013.9
20260903032454 78 0 1.0 3.0 0.00 0.00 0.00 41 1013.9
20260903032338 78 0 1.0 3.0 0.00 0.00 0.00 41 1013.9
20260903031728 78 0 1.0 4.0 0.00 0.00 0.00 41 1013.9
20260903031210 79 0 1.0 4.0 0.00 0.00 0.00 40 1013.9
20260903030712 79 0 1.0 4.0 0.00 0.00 0.00 40 1013.9
20260903030208 80 0 1.0 4.0 0.00 0.00 0.00 39 1014.1
20260903025929 80 0 1.0 5.0 0.00 0.00 0.00 38 1013.9
20260903025812 80 0 1.0 5.0 0.00 0.00 0.00 38 1013.9
20260903025207 81 0 1.0 5.0 0.00 0.00 0.00 37 1013.9
20260903024657 81 0 1.0 4.0 0.00 0.00 0.00 36 1013.9
20260903024158 82 0 1.0 4.0 0.00 0.00 0.00 35 1013.8
20260903023654 83 0 1.0 3.0 0.00 0.00 0.00 34 1013.8
20260903023427 83 0 1.0 4.0 0.00 0.00 0.00 33 1013.7
20260903023255 83 0 1.0 4.0 0.00 0.00 0.00 33 1013.7
20260903022638 83 0 1.0 4.0 0.00 0.00 0.00 33 1013.7
20260903022137 84 0 1.0 6.0 0.00 0.00 0.00 32 1013.6
20260903021626 84 0 1.0 6.0 0.00 0.00 0.00 31 1013.5
20260903021102 85 0 2.0 8.0 0.00 0.00 0.00 31 1013.5
20260903020550 85 0 2.0 8.0 0.00 0.00 0.00 30 1013.5
20260903020107 85 0 2.0 6.0 0.00 0.00 0.00 30 1013.4
20260903015544 85 0 2.0 8.0 0.00 0.00 0.00 29 1013.4
20260903015040 86 0 2.0 8.0 0.00 0.00 0.00 29 1013.4
20260903014514 86 0 2.0 5.0 0.00 0.00 0.00 29 1013.3
20260903014012 87 0 2.0 5.0 0.00 0.00 0.00 28 1013.3
20260903013815 87 0 1.0 4.0 0.00 0.00 0.00 28 1013.2
20260903013737 87 0 1.0 4.0 0.00 0.00 0.00 28 1013.2
20260903012914 88 0 2.0 4.0 0.00 0.00 0.00 28 1013.2
20260903012635 88 0 2.0 4.0 0.00 0.00 0.00 27 1013.2
20260903012520 88 0 2.0 4.0 0.00 0.00 0.00 27 1013.2
20260903012103 89 0 2.0 4.0 0.00 0.00 0.00 27 1013.2
20260903011948 89 0 2.0 4.0 0.00 0.00 0.00 27 1013.2
20260903011329 90 0 2.0 5.0 0.00 0.00 0.00 26 1013.2
20260903010828 90 0 1.0 5.0 0.00 0.00 0.00 25 1013.2
20260903010326 91 0 1.0 5.0 0.00 0.00 0.00 25 1013.2
20260903005828 92 200 2.0 5.0 0.00 0.00 0.00 24 1013.2
20260903005300 92 201 1.0 7.0 0.00 0.00 0.00 24 1013.1
20260903004734 93 213 2.0 7.0 0.00 0.00 0.00 24 1013.3
20260903004208 93 196 3.0 7.0 0.00 0.00 0.00 24 1013.2
20260903003703 94 211 3.0 7.0 0.00 0.00 0.00 23 1013.2
20260903003148 94 231 3.0 8.0 0.00 0.00 0.00 23 1013.2
20260903002622 95 216 3.0 9.0 0.00 0.00 0.00 22 1013.1
20260903002117 95 223 3.0 9.0 0.00 0.00 0.00 24 1013.2
20260903001613 95 257 4.0 10.0 0.00 0.00 0.00 23 1013.2
20260903001304 96 215 5.0 10.0 0.00 0.00 0.00 23 1013.2
20260903001148 96 215 5.0 10.0 0.00 0.00 0.00 23 1013.2
20260903000744 96 254 5.0 10.0 0.00 0.00 0.00 23 1013.2
20260903000622 96 254 5.0 10.0 0.00 0.00 0.00 23 1013.2
20260903000017 96 236 5.0 10.0 0.00 0.00 0.00 23 1013.3
20260902235510 96 250 4.0 9.0 0.00 0.00 0.00 23 1013.2
20260902235001 97 194 4.0 10.0 0.00 0.00 0.00 24 1013.1
20260902234435 97 198 5.0 11.0 0.00 0.00 0.00 24 1013.2
20260902233914 97 207 5.0 12.0 0.00 0.00 0.00 24 1013.1
20260902233429 97 252 5.0 12.0 0.00 0.00 0.00 24 1013.2
20260902233137 97 200 7.0 13.0 0.00 0.00 0.00 24 1013.2
20260902233020 97 200 7.0 13.0 0.00 0.00 0.00 24 1013.2
20260902232635 97 246 7.0 13.0 0.00 0.00 0.00 23 1013.2
20260902232517 97 246 7.0 13.0 0.00 0.00 0.00 23 1013.2
20260902231855 97 246 6.0 14.0 0.00 0.00 0.00 23 1013.3
20260902231345 98 238 6.0 14.0 0.00 0.00 0.00 23 1013.3
20260902230851 98 226 6.0 13.0 0.00 0.00 0.00 23 1013.2
20260902230341 98 228 6.0 14.0 0.00 0.00 0.00 24 1013.2
20260902225839 98 202 6.0 14.0 0.00 0.00 0.00 24 1013.2
20260902225308 98 250 6.0 13.0 0.00 0.00 0.00 24 1013.2
20260902224740 98 238 7.0 15.0 0.00 0.00 0.00 24 1013.2
20260902224226 98 242 8.0 15.0 0.00 0.00 0.00 23 1013.2
20260902223725 98 217 7.0 14.0 0.00 0.00 0.00 23 1013.2
20260902223208 98 234 6.0 16.0 0.00 0.00 0.00 24 1013.2
20260902222713 99 234 6.0 16.0 0.00 0.00 0.00 23 1013.2
20260902222428 98 205 7.0 15.0 0.00 0.00 0.00 22 1013.1
20260902222314 98 205 7.0 15.0 0.00 0.00 0.00 22 1013.1
20260902221644 99 234 7.0 20.0 0.00 0.00 0.00 23 1013.2